When you browse on this site, cookies collect data to enhance your experience and personalize the content and advertising you see.
Visit our Privacy Policy to learn more. By continuing to use the site, you agree to this use of cookies and data.
  • In United Kingdom
  • List of Countries
  • For 7 days
  • Water Temperature
  • Weather Map
  • Weather Widgets
  • user-avatar
    Login

    Hourly Weather Trujillo

    Today, 26 August, Monday

    Time Temperature Precipitation Wind Pressure Humidity
    00:00 +26°C° 0 mm 4 mps 759 mmHg 97%
    01:00 +26°C° 0 mm 4 mps 758 mmHg 97%
    02:00 +25°C° 0 mm 3 mps 758 mmHg 96%
    03:00 +25°C° 0 mm 3 mps 758 mmHg 96%
    04:00 +25°C° 0 mm 3 mps 758 mmHg 96%
    05:00 +25°C° 0 mm 3 mps 758 mmHg 95%
    06:00 +25°C° 0 mm 3 mps 758 mmHg 95%
    07:00 +28°C° 0 mm 3 mps 759 mmHg 80%
    08:00 +31°C° 0 mm 3 mps 759 mmHg 65%
    09:00 +36°C° 0 mm 3 mps 759 mmHg 51%
    10:00 +38°C° 0 mm 4 mps 759 mmHg 44%
    11:00 +41°C° 0 mm 5 mps 758 mmHg 37%
    12:00 +44°C° 0 mm 6 mps 758 mmHg 30%
    13:00 +41°C° 0 mm 7 mps 757 mmHg 35%
    14:00 +40°C° 0 mm 8 mps 757 mmHg 39%
    15:00 +39°C° 0 mm 8 mps 756 mmHg 44%
    16:00 +37°C° 0 mm 8 mps 757 mmHg 51%
    17:00 +34°C° 0 mm 8 mps 757 mmHg 59%
    18:00 +32°C° 0 mm 8 mps 757 mmHg 66%
    19:00 +30°C° 0 mm 7 mps 758 mmHg 71%
    20:00 +29°C° 0 mm 7 mps 759 mmHg 77%
    21:00 +27°C° 0 mm 6 mps 759 mmHg 82%
    22:00 +27°C° 0 mm 6 mps 759 mmHg 84%
    23:00 +26°C° 0 mm 5 mps 759 mmHg 87%

    Tomorrow, 27 August, Tuesday

    Time Temperature Precipitation Wind Pressure Humidity
    00:00 +25°C° 0 mm 5 mps 759 mmHg 90%
    01:00 +25°C° 0 mm 4 mps 758 mmHg 89%
    02:00 +25°C° 0 mm 4 mps 758 mmHg 89%
    03:00 +25°C° 0 mm 4 mps 758 mmHg 88%
    04:00 +25°C° 0 mm 4 mps 758 mmHg 88%
    05:00 +25°C° 0 mm 3 mps 758 mmHg 87%
    06:00 +25°C° 0 mm 3 mps 758 mmHg 87%
    07:00 +28°C° 0 mm 3 mps 759 mmHg 73%
    08:00 +33°C° 0 mm 3 mps 759 mmHg 60%
    09:00 +36°C° 0 mm 3 mps 759 mmHg 47%
    10:00 +37°C° 0 mm 4 mps 759 mmHg 44%
    11:00 +39°C° 0 mm 6 mps 759 mmHg 42%
    12:00 +40°C° 0 mm 7 mps 758 mmHg 39%
    13:00 +39°C° 0.2 mm 8 mps 758 mmHg 40%
    14:00 +39°C° 0.2 mm 8 mps 758 mmHg 41%
    15:00 +39°C° 0.2 mm 9 mps 757 mmHg 42%
    16:00 +37°C° 0 mm 9 mps 757 mmHg 51%
    17:00 +34°C° 0 mm 8 mps 758 mmHg 60%
    18:00 +32°C° 0 mm 8 mps 758 mmHg 69%
    19:00 +31°C° 0 mm 8 mps 758 mmHg 74%
    20:00 +29°C° 0 mm 7 mps 759 mmHg 79%
    21:00 +28°C° 0 mm 6 mps 759 mmHg 83%
    22:00 +27°C° 0 mm 6 mps 759 mmHg 87%
    23:00 +26°C° 0 mm 6 mps 759 mmHg 90%

    Day after tomorrow, 28 August, Wednesday

    Time Temperature Precipitation Wind Pressure Humidity
    00:00 +25°C° 0 mm 5 mps 759 mmHg 94%
    01:00 +25°C° 0 mm 5 mps 759 mmHg 94%
    02:00 +25°C° 0 mm 4 mps 759 mmHg 95%
    03:00 +25°C° 0 mm 4 mps 759 mmHg 95%
    04:00 +25°C° 0 mm 3 mps 759 mmHg 93%
    05:00 +25°C° 0 mm 3 mps 759 mmHg 91%
    06:00 +25°C° 0 mm 3 mps 760 mmHg 89%
    07:00 +28°C° 0 mm 3 mps 760 mmHg 76%
    08:00 +31°C° 0 mm 3 mps 760 mmHg 63%
    09:00 +35°C° 0 mm 3 mps 761 mmHg 50%
    10:00 +36°C° 0 mm 4 mps 760 mmHg 45%
    11:00 +38°C° 0 mm 6 mps 760 mmHg 40%
    12:00 +40°C° 0 mm 7 mps 760 mmHg 36%
    13:00 +39°C° 0 mm 7 mps 759 mmHg 37%
    14:00 +39°C° 0 mm 7 mps 759 mmHg 39%
    15:00 +39°C° 0 mm 7 mps 758 mmHg 40%
    16:00 +36°C° 0 mm 7 mps 758 mmHg 49%
    17:00 +34°C° 0 mm 7 mps 759 mmHg 57%
    18:00 +30°C° 0 mm 6 mps 759 mmHg 65%
    19:00 +29°C° 0 mm 6 mps 759 mmHg 73%
    20:00 +28°C° 0 mm 5 mps 760 mmHg 81%
    21:00 +26°C° 0 mm 5 mps 760 mmHg 89%
    22:00 +26°C° 0 mm 4 mps 760 mmHg 90%
    23:00 +25°C° 0 mm 4 mps 760 mmHg 91%

    29 August, Thursday

    Time Temperature Precipitation Wind Pressure Humidity
    00:00 +25°C° 0 mm 3 mps 760 mmHg 93%
    01:00 +25°C° 0 mm 3 mps 760 mmHg 91%
    02:00 +24°C° 0 mm 2 mps 760 mmHg 90%
    03:00 +24°C° 0 mm 2 mps 759 mmHg 89%
    04:00 +24°C° 0 mm 2 mps 759 mmHg 88%
    05:00 +24°C° 0 mm 2 mps 760 mmHg 87%
    06:00 +24°C° 0 mm 2 mps 760 mmHg 86%
    07:00 +28°C° 0 mm 2 mps 760 mmHg 73%
    08:00 +31°C° 0 mm 1 mps 760 mmHg 61%
    09:00 +35°C° 0 mm 1 mps 760 mmHg 49%
    10:00 +37°C° 0 mm 2 mps 760 mmHg 46%
    11:00 +37°C° 0 mm 3 mps 759 mmHg 43%
    12:00 +38°C° 0 mm 4 mps 759 mmHg 39%
    13:00 +37°C° 0 mm 4 mps 759 mmHg 43%
    14:00 +36°C° 0 mm 4 mps 758 mmHg 48%
    15:00 +35°C° 0 mm 4 mps 758 mmHg 52%
    16:00 +33°C° 0.2 mm 3 mps 758 mmHg 63%
    17:00 +31°C° 0.2 mm 3 mps 758 mmHg 74%
    18:00 +29°C° 0.2 mm 2 mps 759 mmHg 85%
    19:00 +28°C° 0.4 mm 2 mps 759 mmHg 89%
    20:00 +27°C° 0.4 mm 2 mps 760 mmHg 93%
    21:00 +26°C° 0.4 mm 1 mps 760 mmHg 97%
    22:00 +26°C° 0 mm 1 mps 760 mmHg 97%
    23:00 +25°C° 0 mm 2 mps 760 mmHg 98%

    30 August, Friday

    Time Temperature Precipitation Wind Pressure Humidity
    00:00 +25°C° 0 mm 2 mps 760 mmHg 98%
    01:00 +25°C° 0 mm 2 mps 759 mmHg 98%
    02:00 +25°C° 0 mm 2 mps 759 mmHg 98%
    03:00 +24°C° 0 mm 2 mps 758 mmHg 98%
    04:00 +24°C° 0 mm 2 mps 759 mmHg 97%
    05:00 +24°C° 0 mm 2 mps 759 mmHg 96%
    06:00 +24°C° 0 mm 2 mps 759 mmHg 95%
    07:00 +27°C° 0 mm 2 mps 759 mmHg 79%
    08:00 +31°C° 0 mm 2 mps 759 mmHg 64%
    09:00 +35°C° 0 mm 2 mps 760 mmHg 49%
    10:00 +36°C° 0 mm 2 mps 759 mmHg 47%
    11:00 +37°C° 0 mm 3 mps 759 mmHg 45%
    12:00 +37°C° 0 mm 4 mps 759 mmHg 43%
    13:00 +36°C° 0 mm 3 mps 758 mmHg 47%
    14:00 +36°C° 0 mm 3 mps 757 mmHg 51%
    15:00 +35°C° 0 mm 2 mps 757 mmHg 55%
    16:00 +32°C° 0.1 mm 2 mps 757 mmHg 64%
    17:00 +30°C° 0.1 mm 1 mps 758 mmHg 72%
    18:00 +28°C° 0.1 mm 1 mps 758 mmHg 81%
    19:00 +27°C° 0 mm 1 mps 759 mmHg 84%
    20:00 +26°C° 0 mm 1 mps 759 mmHg 87%
    21:00 +26°C° 0 mm 1 mps 760 mmHg 90%
    22:00 +26°C° 0 mm 1 mps 760 mmHg 91%
    23:00 +25°C° 0 mm 1 mps 760 mmHg 92%

    31 August, Saturday

    Time Temperature Precipitation Wind Pressure Humidity
    00:00 +25°C° 0 mm 2 mps 760 mmHg 93%
    01:00 +25°C° 0 mm 2 mps 759 mmHg 93%
    02:00 +25°C° 0 mm 2 mps 759 mmHg 93%
    03:00 +25°C° 0 mm 2 mps 759 mmHg 93%
    04:00 +25°C° 0 mm 2 mps 759 mmHg 92%
    05:00 +25°C° 0 mm 2 mps 759 mmHg 92%
    06:00 +25°C° 0 mm 2 mps 759 mmHg 91%
    07:00 +28°C° 0 mm 2 mps 759 mmHg 77%
    08:00 +31°C° 0 mm 2 mps 759 mmHg 63%
    09:00 +36°C° 0 mm 2 mps 760 mmHg 48%
    10:00 +36°C° 0 mm 2 mps 759 mmHg 48%
    11:00 +37°C° 0 mm 2 mps 759 mmHg 47%
    12:00 +37°C° 0 mm 3 mps 759 mmHg 46%
    13:00 +36°C° 0 mm 3 mps 758 mmHg 48%
    14:00 +36°C° 0 mm 3 mps 758 mmHg 50%
    15:00 +35°C° 0 mm 2 mps 757 mmHg 52%
    16:00 +32°C° 0 mm 2 mps 757 mmHg 61%
    17:00 +30°C° 0 mm 2 mps 758 mmHg 70%
    18:00 +28°C° 0 mm 2 mps 758 mmHg 79%
    19:00 +28°C° 0.1 mm 3 mps 758 mmHg 84%
    20:00 +27°C° 0.1 mm 3 mps 759 mmHg 89%
    21:00 +26°C° 0.1 mm 3 mps 759 mmHg 93%
    22:00 +26°C° 0.1 mm 3 mps 759 mmHg 94%
    23:00 +26°C° 0.1 mm 3 mps 759 mmHg 95%
    Show more